Mist van: 22-01-2020 21:59 tot: 23-01-2020 09:59 waarschuwing voor: Mist niveau: Geel info button

Vossem Meer informatie Vossem


Tervuren markt Meer informatie Tervuren markt


Tervuren park Meer informatie Tervuren park


Bezoek onze andere website:

Meteotemplate

Home Weather Station

Saratoga


Lokaal brand risico:
CBI


Regionaal brand risico: Meer informatie



Select another period ( hide this area )

Eenheden Periode Custom range Directly to
Metrisch Engels Beide
Dagelijkse Wekelijkse Maandelijkse Jaarlijkse
use both date-selectors for a custom range
previous Dag
With this date

WeatherUnderground graphs for this period ( click here )


Dagelijkse Samenvatting Woensdag 22 januari 2020
Tijd Temp. ( °C ) Dew pt. ( °C ) Wind ( km/h ) van Vlaag ( km/h ) Luchtdruk ( hPa ) Humid.( % ) Rainrate ( cm )
Hoog3,4 2,5 3,2 Oosten ( 24/57 ) 6,4 1038,8 96 0,80
Gemiddeld0,6 -0,2 0,2 Kalm #240/270 0,8 1036,5 94 1,60
Laag-2,2 -3,0 -   0,0 1035,1 93 -
Dagelijkse Tabular details for Woensdag 22 januari 2020
Tijd Temp. ( °C ) Dew pt. ( °C ) Wind ( km/h ) van Vlaag ( km/h ) Luchtdruk ( hPa ) Humid.( % ) Rainrate ( cm )
00:00 -1,7 -2,5   Kalm 1,6 1038,1 94 -
00:06 -1,7 -2,5   Kalm   1038,1 94 -
00:10 -1,7 -2,5 1,8 OZO 1,6 1038,1 94 -
00:16 -1,7 -2,5 1,8 OZO 1,6 1038,1 94 -
00:20 -1,7 -2,5   Kalm   1038,1 94 -
00:26 -1,8 -2,6   Kalm   1038,1 94 -
00:30 -1,8 -2,6   Kalm   1038,1 94 -
00:36 -1,9 -2,7   Kalm   1038,1 94 -
00:40 -1,9 -2,7   Kalm   1038,5 94 -
00:46 -1,8 -2,6   Kalm   1038,5 94 -
00:50 -1,8 -2,6   Kalm 3,2 1038,5 94 -
00:56 -1,9 -2,7 1,8 OZO 3,2 1038,8 94 -
01:00 -1,9 -2,7   Kalm 4,8 1038,5 94 -
01:06 -1,9 -2,7   Kalm 4,8 1038,5 94 -
01:10 -2,0 -2,8 1,8 NW 3,2 1038,5 94 -
01:16 -2,1 -2,9 1,8 Noorden 3,2 1038,5 94 -
01:20 -2,0 -2,8 1,8 Noorden 3,2 1038,5 94 -
01:26 -2,0 -2,8   Kalm 3,2 1038,1 94 -
01:30 -2,1 -2,9 1,8 Noorden 4,8 1038,1 94 -
01:36 -2,1 -2,9 1,8 Noorden 6,4 1038,1 94 -
01:40 -2,2 -3,0 1,8 Noorden 3,2 1038,1 94 -
01:46 -2,2 -3,0   Kalm 3,2 1038,1 94 -
01:50 -2,2 -3,0   Kalm 1,6 1038,1 94 -
01:56 -2,2 -3,0   Kalm 1,6 1038,1 94 -
02:00 -2,2 -3,0   Kalm   1038,1 94 -
02:06 -2,2 -3,0   Kalm   1037,8 94 -
02:10 -2,2 -3,0   Kalm   1038,1 94 -
02:16 -2,1 -2,9   Kalm   1038,1 94 -
02:20 -2,1 -2,9   Kalm   1038,1 94 -
02:26 -2,1 -2,9   Kalm   1038,1 94 -
02:30 -1,9 -2,7   Kalm   1038,1 94 -
02:36 -1,9 -2,6   Kalm   1037,8 95 -
02:40 -1,9 -2,6   Kalm   1037,8 95 -
02:46 -1,9 -2,6   Kalm   1037,8 95 -
02:50 -1,8 -2,6   Kalm   1037,8 94 -
02:56 -1,8 -2,6   Kalm   1037,8 94 -
03:00 -1,7 -2,5   Kalm   1037,8 94 -
03:06 -1,7 -2,5   Kalm 1,6 1037,5 94 -
03:10 -1,7 -2,4   Kalm   1037,8 95 -
03:16 -1,6 -2,3   Kalm 1,6 1037,5 95 -
03:20 -1,6 -2,3   Kalm   1037,5 95 -
03:26 -1,6 -2,3   Kalm 1,6 1037,5 95 -
03:30 -1,6 -2,3   Kalm 1,6 1037,1 95 -
03:36 -1,6 -2,3   Kalm   1037,1 95 -
03:40 -1,5 -2,2   Kalm 1,6 1037,1 95 -
03:46 -1,5 -2,3   Kalm   1037,1 94 -
03:50 -1,5 -2,2   Kalm 1,6 1037,1 95 -
03:56 -1,4 -2,1   Kalm   1037,1 95 -
04:00 -1,4 -2,1   Kalm   1037,1 95 -
04:06 -1,5 -2,3   Kalm   1037,1 94 -
04:10 -1,5 -2,3   Kalm   1037,1 94 -
04:16 -1,4 -2,2   Kalm   1037,1 94 -
04:20 -1,5 -2,3   Kalm   1037,1 94 -
04:26 -1,5 -2,2   Kalm   1036,8 95 -
04:30 -1,5 -2,2   Kalm   1036,8 95 -
04:36 -1,5 -2,3   Kalm   1036,8 94 -
04:40 -1,5 -2,2   Kalm   1037,1 95 -
04:46 -1,5 -2,3   Kalm   1036,8 94 -
04:50 -1,5 -2,2   Kalm   1036,8 95 -
04:56 -1,4 -2,2   Kalm   1036,8 94 -
05:00 -1,5 -2,3   Kalm   1036,8 94 -
05:06 -1,5 -2,3   Kalm   1036,8 94 -
05:10 -1,5 -2,3   Kalm 1,6 1036,8 94 -
05:16 -1,5 -2,2   Kalm   1036,5 95 -
05:20 -1,5 -2,2   Kalm   1036,5 95 -
05:26 -1,6 -2,3   Kalm   1036,5 95 -
05:30 -1,6 -2,3   Kalm   1036,8 95 -
05:36 -1,6 -2,3   Kalm   1036,8 95 -
05:40 -1,5 -2,2   Kalm   1036,8 95 -
05:46 -1,6 -2,3   Kalm   1036,8 95 -
05:50 -1,5 -2,2   Kalm 1,6 1036,8 95 -
05:56 -1,5 -2,2   Kalm 1,6 1036,8 95 -
06:00 -1,5 -2,3   Kalm   1036,5 94 -
06:06 -1,5 -2,3   Kalm   1036,5 94 -
06:10 -1,5 -2,3   Kalm 1,6 1036,5 94 -
06:16 -1,5 -2,3   Kalm 1,6 1036,5 94 -
06:20 -1,4 -2,2   Kalm 1,6 1036,5 94 -
06:26 -1,5 -2,3   Kalm 3,2 1036,1 94 -
06:30 -1,5 -2,3   Kalm   1036,5 94 -
06:36 -1,4 -2,2   Kalm 1,6 1036,1 94 -
06:40 -1,5 -2,3   Kalm   1036,1 94 -
06:46 -1,4 -2,1   Kalm   1036,1 95 -
06:50 -1,4 -2,1   Kalm   1036,1 95 -
06:56 -1,4 -2,1   Kalm   1036,1 95 -
07:00 -1,4 -2,2   Kalm   1035,8 94 -
07:06 -1,4 -2,1   Kalm   1035,8 95 -
07:10 -1,4 -2,1   Kalm   1036,1 95 -
07:16 -1,3 -2,0   Kalm 1,6 1036,1 95 -
07:20 -1,3 -2,0   Kalm 1,6 1036,1 95 -
07:26 -1,3 -2,0   Kalm   1036,1 95 -
07:30 -1,3 -2,0   Kalm 1,6 1036,1 95 -
07:36 -1,3 -2,0   Kalm   1036,1 95 -
07:40 -1,3 -2,0   Kalm 1,6 1036,1 95 -
07:46 -1,3 -2,0   Kalm   1036,1 95 -
07:50 -1,3 -2,0   Kalm   1036,1 95 -
07:56 -1,3 -2,0   Kalm 1,6 1036,1 95 -
08:00 -1,3 -2,0   Kalm   1036,1 95 -
08:06 -1,3 -2,0   Kalm   1036,1 95 -
08:10 -1,3 -2,0 1,8 Noorden 1,6 1036,1 95 -
08:16 -1,3 -2,0   Kalm   1036,5 95 -
08:20 -1,2 -1,9   Kalm   1036,5 95 -
08:26 -1,2 -1,9   Kalm   1036,8 95 -
08:30 -1,2 -1,9   Kalm   1036,5 95 -
08:36 -1,1 -1,8   Kalm   1036,5 95 -
08:40 -1,1 -1,8   Kalm   1036,5 95 -
08:46 -1,1 -1,8   Kalm 1,6 1036,8 95 -
08:50 -1,0 -1,7   Kalm 1,6 1036,8 95 -
08:56 -0,9 -1,6   Kalm 1,6 1036,8 95 -
09:00 -0,9 -1,6   Kalm 1,6 1037,1 95 -
09:06 -0,9 -1,6   Kalm 3,2 1037,1 95 -
09:10 -0,9 -1,6   Kalm 1,6 1037,1 95 -
09:16 -0,9 -1,6   Kalm 1,6 1037,1 95 -
09:20 -0,8 -1,5 1,8 Noorden 3,2 1037,1 95 -
09:26 -0,8 -1,5   Kalm 3,2 1037,1 95 -
09:30 -0,8 -1,5   Kalm 3,2 1037,1 95 -
09:36 -0,8 -1,5   Kalm 1,6 1037,1 95 -
09:40 -0,8 -1,5   Kalm   1037,1 95 -
09:46 -0,8 -1,5   Kalm 1,6 1037,1 95 -
09:50 -0,8 -1,5   Kalm 1,6 1037,1 95 -
09:56 -0,8 -1,5   Kalm 1,6 1037,1 95 -
10:00 -0,7 -1,4   Kalm   1037,1 95 -
10:06 -0,7 -1,4   Kalm   1037,1 95 -
10:10 -0,7 -1,4   Kalm 1,6 1037,1 95 -
10:16 -0,7 -1,4   Kalm   1037,1 95 -
10:20 -0,6 -1,3   Kalm   1037,1 95 -
10:26 -0,6 -1,3   Kalm 1,6 1037,1 95 -
10:30 -0,6 -1,3   Kalm 1,6 1037,1 95 -
10:36 -0,4 -1,1 1,8 Noorden 1,6 1037,1 95 -
10:40 -0,4 -1,1   Kalm 3,2 1037,1 95 -
10:46 -0,3 -1,0   Kalm 3,2 1037,1 95 -
10:50 -0,3 -1,0   Kalm   1037,1 95 -
10:56 -0,1 -0,8   Kalm   1037,1 95 -
11:00 0,1 -0,6   Kalm 1,6 1037,1 95 -
11:06 0,1 -0,6   Kalm 3,2 1037,1 95 -
11:10 0,2 -0,5   Kalm 1,6 1036,8 95 -
11:16 0,3 -0,4   Kalm 1,6 1036,8 95 -
11:20 0,4 -0,3   Kalm 1,6 1036,8 95 -
11:26 0,6 -0,1   Kalm   1036,8 95 -
11:30 0,6 -0,1 1,8 Oosten 3,2 1036,8 95 -
11:36 0,7 0,0   Kalm 3,2 1037,1 95 -
11:40 0,7 0,0   Kalm 1,6 1037,1 95 -
11:46 0,7 0,0   Kalm 3,2 1037,1 95 -
11:50 0,7 0,0   Kalm 4,8 1037,1 95 -
11:56 0,6 -0,1   Kalm   1037,1 95 -
12:00 0,7 0,0   Kalm   1037,1 95 -
12:06 0,7 0,0   Kalm   1037,1 95 -
12:10 0,7 0,0   Kalm   1036,8 95 -
12:16 0,8 0,1   Kalm   1036,8 95 -
12:20 0,9 0,2   Kalm   1036,8 95 -
12:26 1,0 0,3   Kalm   1036,5 95 -
12:30 1,0 0,3   Kalm   1036,5 95 -
12:36 1,2 0,5   Kalm   1036,5 95 -
12:40 1,2 0,5   Kalm   1036,5 95 -
12:46 1,3 0,6   Kalm   1036,5 95 -
12:50 1,4 0,7   Kalm   1036,5 95 -
12:56 1,6 1,0   Kalm   1036,5 96 -
13:00 1,6 0,9   Kalm   1036,5 95 -
13:06 1,7 1,0   Kalm   1036,1 95 -
13:10 1,7 1,0   Kalm   1036,1 95 -
13:16 1,9 1,3   Kalm   1036,1 96 -
13:20 1,9 1,3   Kalm   1036,1 96 -
13:26 2,1 1,4   Kalm   1036,1 95 -
13:30 2,3 1,7   Kalm 3,2 1036,1 96 -
13:36 2,4 1,8 1,8 Oosten 3,2 1036,1 96 -
13:40 2,4 1,7 1,8 Oosten 3,2 1036,1 95 -
13:46 2,4 1,8 1,8 Oosten 3,2 1035,8 96 -
13:50 2,6 2,0   Kalm 1,6 1035,8 96 -
13:56 2,7 2,0   Kalm   1035,8 95 -
14:00 2,7 2,0   Kalm   1035,8 95 -
14:06 2,7 2,0   Kalm   1035,8 95 -
14:10 2,7 2,0   Kalm   1035,8 95 -
14:16 2,7 2,0   Kalm   1035,8 95 -
14:20 2,8 2,1   Kalm   1035,8 95 -
14:26 2,9 2,2   Kalm   1035,4 95 -
14:30 2,9 2,2   Kalm   1035,4 95 -
14:36 2,9 2,2   Kalm   1035,4 95 -
14:40 2,9 2,2   Kalm   1035,4 95 -
14:46 2,9 2,2   Kalm   1035,8 95 -
14:50 3,0 2,3   Kalm   1035,8 95 -
14:56 3,0 2,3   Kalm   1035,8 95 -
15:00 3,0 2,1   Kalm   1035,4 94 -
15:06 2,9 2,0   Kalm   1035,4 94 0,80
15:10 2,9 2,0   Kalm   1035,4 94 0,80
15:16 3,0 2,1   Kalm   1035,4 94 0,80
15:20 3,1 2,2   Kalm   1035,4 94 0,80
15:26 3,1 2,4   Kalm   1035,4 95 -
15:30 3,2 2,5   Kalm   1035,4 95 -
15:36 3,2 2,3   Kalm   1035,4 94 -
15:40 3,1 2,2   Kalm   1035,4 94 -
15:46 3,1 2,2   Kalm   1035,4 94 -
15:50 3,2 2,3   Kalm   1035,4 94 -
15:56 3,2 2,3   Kalm   1035,4 94 -
16:00 3,2 2,3   Kalm   1035,4 94 -
16:06 3,1 2,2   Kalm   1035,4 94 -
16:10 3,1 2,2   Kalm   1035,4 94 -
16:16 3,1 2,1   Kalm   1035,4 93 -
16:20 3,1 2,1   Kalm   1035,4 93 -
16:26 3,0 2,0   Kalm   1035,4 93 -
16:30 3,0 2,0   Kalm   1035,4 93 -
16:36 3,0 2,0   Kalm   1035,4 93 -
16:40 2,9 1,9   Kalm   1035,4 93 -
16:46 3,0 2,0   Kalm   1035,1 93 -
16:50 3,0 2,1   Kalm   1035,4 94 -
16:56 3,0 2,1   Kalm   1035,4 94 -
17:00 3,0 2,1   Kalm   1035,4 94 -
17:06 2,9 1,9   Kalm   1035,4 93 -
17:10 2,9 1,9   Kalm   1035,4 93 -
17:16 2,9 1,9   Kalm   1035,4 93 -
17:20 2,9 1,9   Kalm   1035,4 93 -
17:26 2,9 2,0   Kalm   1035,4 94 -
17:30 2,9 2,0   Kalm   1035,4 94 -
17:36 2,9 2,0   Kalm   1035,4 94 -
17:40 2,9 2,0   Kalm   1035,4 94 -
17:46 2,9 2,0   Kalm   1035,4 94 -
17:50 2,9 2,0   Kalm   1035,4 94 -
17:56 2,9 2,0   Kalm   1035,4 94 -
18:00 2,9 2,0   Kalm   1035,4 94 -
18:06 2,9 2,0 3,2 Oosten 4,8 1035,4 94 -
18:10 2,9 2,0   Kalm 1,6 1035,4 94 -
18:16 3,0 2,1   Kalm   1035,4 94 -
18:20 3,0 2,1   Kalm   1035,4 94 -
18:26 3,1 2,2   Kalm   1035,4 94 -
18:30 3,1 2,2 1,8 Oosten 4,8 1035,4 94 -
18:36 3,1 2,2 1,8 Oosten 1,6 1035,4 94 -
18:40 3,1 2,2 1,8 Oosten 4,8 1035,4 94 -
18:46 3,1 2,2   Kalm 3,2 1035,4 94 -
18:50 3,1 2,2 3,2 Oosten 3,2 1035,4 94 -
18:56 3,1 2,2 1,8 Oosten 6,4 1035,4 94 -
19:00 3,1 2,2 1,8 Oosten 1,6 1035,4 94 -
19:06 3,1 2,2 1,8 Oosten 1,6 1035,4 94 -
19:10 3,1 2,2 1,8 ONO 1,6 1035,4 94 -
19:16 3,1 2,2 1,8 ONO 1,6 1035,4 94 -
19:20 3,1 2,2 1,8 ONO 3,2 1035,4 94 -
19:26 3,1 2,2   Kalm 1,6 1035,8 94 -
19:30 3,1 2,2   Kalm 1,6 1035,8 94 -
19:36 3,1 2,2   Kalm   1035,8 94 -
19:40 3,2 2,3   Kalm   1035,8 94 -
19:46 3,2 2,3   Kalm   1035,8 94 -
19:50 3,2 2,3 1,8 ONO 1,6 1035,8 94 -
19:56 3,2 2,3 1,8 ONO 1,6 1035,8 94 -
20:00 3,2 2,3   Kalm   1035,8 94 -
20:06 3,2 2,3   Kalm   1036,1 94 -
20:10 3,2 2,3   Kalm   1035,8 94 -
20:16 3,2 2,3   Kalm   1035,8 94 -
20:20 3,2 2,3   Kalm   1035,8 94 -
20:26 3,2 2,3 1,8 ONO 1,6 1035,8 94 -
20:30 3,3 2,4   Kalm 1,6 1036,1 94 -
20:36 3,3 2,4   Kalm   1035,8 94 -
20:40 3,3 2,4   Kalm   1035,8 94 -
20:46 3,3 2,4   Kalm   1036,1 94 -
20:50 3,3 2,4   Kalm 1,6 1036,1 94 -
20:56 3,3 2,4   Kalm   1036,1 94 -
21:00 3,3 2,4   Kalm 1,6 1036,1 94 -
21:06 3,3 2,4   Kalm   1036,1 94 -
21:10 3,3 2,4   Kalm   1036,1 94 -
21:16 3,3 2,4   Kalm   1036,1 94 -
21:20 3,3 2,4   Kalm   1036,1 94 -
21:26 3,3 2,4   Kalm 1,6 1036,1 94 -
21:30 3,3 2,4   Kalm   1036,1 94 -
21:36 3,3 2,4   Kalm   1035,8 94 -
21:40 3,3 2,4   Kalm   1035,8 94 -
21:46 3,3 2,4   Kalm   1035,8 94 -
21:50 3,4 2,5   Kalm   1035,8 94 -
21:56 3,3 2,4   Kalm   1036,1 94 -
22:00 3,3 2,4   Kalm   1035,8 94 -
22:06 3,4 2,5   Kalm   1036,1 94 -
22:10 3,4 2,5   Kalm   1036,1 94 -
22:16 3,4 2,5   Kalm   1036,1 94 -
22:20 3,4 2,5   Kalm   1036,1 94 -
22:26 3,4 2,5   Kalm   1036,1 94 -
Dagelijkse Samenvatting Woensdag 22 januari 2020
Tijd Temp. ( °C ) Dew pt. ( °C ) Wind ( km/h ) van Vlaag ( km/h ) Luchtdruk ( hPa ) Humid.( % ) Rainrate ( cm )
Hoog3,4 2,5 3,2 Oosten ( 24/57 ) 6,4 1038,8 96 0,80
Gemiddeld0,6 -0,2 0,2 Kalm #240/270 0,8 1036,5 94 1,60
Laag-2,2 -3,0 -   0,0 1035,1 93 -
Dagelijkse Tabular details for Woensdag 22 januari 2020
Tijd Temp. ( °C ) Dew pt. ( °C ) Wind ( km/h ) van Vlaag ( km/h ) Luchtdruk ( hPa ) Humid.( % ) Rainrate ( cm )
00:00 -1,7 -2,5   Kalm 1,6 1038,1 94 -
00:06 -1,7 -2,5   Kalm   1038,1 94 -
00:10 -1,7 -2,5 1,8 OZO 1,6 1038,1 94 -
00:16 -1,7 -2,5 1,8 OZO 1,6 1038,1 94 -
00:20 -1,7 -2,5   Kalm   1038,1 94 -
00:26 -1,8 -2,6   Kalm   1038,1 94 -
00:30 -1,8 -2,6   Kalm   1038,1 94 -
00:36 -1,9 -2,7   Kalm   1038,1 94 -
00:40 -1,9 -2,7   Kalm   1038,5 94 -
00:46 -1,8 -2,6   Kalm   1038,5 94 -
00:50 -1,8 -2,6   Kalm 3,2 1038,5 94 -
00:56 -1,9 -2,7 1,8 OZO 3,2 1038,8 94 -
01:00 -1,9 -2,7   Kalm 4,8 1038,5 94 -
01:06 -1,9 -2,7   Kalm 4,8 1038,5 94 -
01:10 -2,0 -2,8 1,8 NW 3,2 1038,5 94 -
01:16 -2,1 -2,9 1,8 Noorden 3,2 1038,5 94 -
01:20 -2,0 -2,8 1,8 Noorden 3,2 1038,5 94 -
01:26 -2,0 -2,8   Kalm 3,2 1038,1 94 -
01:30 -2,1 -2,9 1,8 Noorden 4,8 1038,1 94 -
01:36 -2,1 -2,9 1,8 Noorden 6,4 1038,1 94 -
01:40 -2,2 -3,0 1,8 Noorden 3,2 1038,1 94 -
01:46 -2,2 -3,0   Kalm 3,2 1038,1 94 -
01:50 -2,2 -3,0   Kalm 1,6 1038,1 94 -
01:56 -2,2 -3,0   Kalm 1,6 1038,1 94 -
02:00 -2,2 -3,0   Kalm   1038,1 94 -
02:06 -2,2 -3,0   Kalm   1037,8 94 -
02:10 -2,2 -3,0   Kalm   1038,1 94 -
02:16 -2,1 -2,9   Kalm   1038,1 94 -
02:20 -2,1 -2,9   Kalm   1038,1 94 -
02:26 -2,1 -2,9   Kalm   1038,1 94 -
02:30 -1,9 -2,7   Kalm   1038,1 94 -
02:36 -1,9 -2,6   Kalm   1037,8 95 -
02:40 -1,9 -2,6   Kalm   1037,8 95 -
02:46 -1,9 -2,6   Kalm   1037,8 95 -
02:50 -1,8 -2,6   Kalm   1037,8 94 -
02:56 -1,8 -2,6   Kalm   1037,8 94 -
03:00 -1,7 -2,5   Kalm   1037,8 94 -
03:06 -1,7 -2,5   Kalm 1,6 1037,5 94 -
03:10 -1,7 -2,4   Kalm   1037,8 95 -
03:16 -1,6 -2,3   Kalm 1,6 1037,5 95 -
03:20 -1,6 -2,3   Kalm   1037,5 95 -
03:26 -1,6 -2,3   Kalm 1,6 1037,5 95 -
03:30 -1,6 -2,3   Kalm 1,6 1037,1 95 -
03:36 -1,6 -2,3   Kalm   1037,1 95 -
03:40 -1,5 -2,2   Kalm 1,6 1037,1 95 -
03:46 -1,5 -2,3   Kalm   1037,1 94 -
03:50 -1,5 -2,2   Kalm 1,6 1037,1 95 -
03:56 -1,4 -2,1   Kalm   1037,1 95 -
04:00 -1,4 -2,1   Kalm   1037,1 95 -
04:06 -1,5 -2,3   Kalm   1037,1 94 -
04:10 -1,5 -2,3   Kalm   1037,1 94 -
04:16 -1,4 -2,2   Kalm   1037,1 94 -
04:20 -1,5 -2,3   Kalm   1037,1 94 -
04:26 -1,5 -2,2   Kalm   1036,8 95 -
04:30 -1,5 -2,2   Kalm   1036,8 95 -
04:36 -1,5 -2,3   Kalm   1036,8 94 -
04:40 -1,5 -2,2   Kalm   1037,1 95 -
04:46 -1,5 -2,3   Kalm   1036,8 94 -
04:50 -1,5 -2,2   Kalm   1036,8 95 -
04:56 -1,4 -2,2   Kalm   1036,8 94 -
05:00 -1,5 -2,3   Kalm   1036,8 94 -
05:06 -1,5 -2,3   Kalm   1036,8 94 -
05:10 -1,5 -2,3   Kalm 1,6 1036,8 94 -
05:16 -1,5 -2,2   Kalm   1036,5 95 -
05:20 -1,5 -2,2   Kalm   1036,5 95 -
05:26 -1,6 -2,3   Kalm   1036,5 95 -
05:30 -1,6 -2,3   Kalm   1036,8 95 -
05:36 -1,6 -2,3   Kalm   1036,8 95 -
05:40 -1,5 -2,2   Kalm   1036,8 95 -
05:46 -1,6 -2,3   Kalm   1036,8 95 -
05:50 -1,5 -2,2   Kalm 1,6 1036,8 95 -
05:56 -1,5 -2,2   Kalm 1,6 1036,8 95 -
06:00 -1,5 -2,3   Kalm   1036,5 94 -
06:06 -1,5 -2,3   Kalm   1036,5 94 -
06:10 -1,5 -2,3   Kalm 1,6 1036,5 94 -
06:16 -1,5 -2,3   Kalm 1,6 1036,5 94 -
06:20 -1,4 -2,2   Kalm 1,6 1036,5 94 -
06:26 -1,5 -2,3   Kalm 3,2 1036,1 94 -
06:30 -1,5 -2,3   Kalm   1036,5 94 -
06:36 -1,4 -2,2   Kalm 1,6 1036,1 94 -
06:40 -1,5 -2,3   Kalm   1036,1 94 -
06:46 -1,4 -2,1   Kalm   1036,1 95 -
06:50 -1,4 -2,1   Kalm   1036,1 95 -
06:56 -1,4 -2,1   Kalm   1036,1 95 -
07:00 -1,4 -2,2   Kalm   1035,8 94 -
07:06 -1,4 -2,1   Kalm   1035,8 95 -
07:10 -1,4 -2,1   Kalm   1036,1 95 -
07:16 -1,3 -2,0   Kalm 1,6 1036,1 95 -
07:20 -1,3 -2,0   Kalm 1,6 1036,1 95 -
07:26 -1,3 -2,0   Kalm   1036,1 95 -
07:30 -1,3 -2,0   Kalm 1,6 1036,1 95 -
07:36 -1,3 -2,0   Kalm   1036,1 95 -
07:40 -1,3 -2,0   Kalm 1,6 1036,1 95 -
07:46 -1,3 -2,0   Kalm   1036,1 95 -
07:50 -1,3 -2,0   Kalm   1036,1 95 -
07:56 -1,3 -2,0   Kalm 1,6 1036,1 95 -
08:00 -1,3 -2,0   Kalm   1036,1 95 -
08:06 -1,3 -2,0   Kalm   1036,1 95 -
08:10 -1,3 -2,0 1,8 Noorden 1,6 1036,1 95 -
08:16 -1,3 -2,0   Kalm   1036,5 95 -
08:20 -1,2 -1,9   Kalm   1036,5 95 -
08:26 -1,2 -1,9   Kalm   1036,8 95 -
08:30 -1,2 -1,9   Kalm   1036,5 95 -
08:36 -1,1 -1,8   Kalm   1036,5 95 -
08:40 -1,1 -1,8   Kalm   1036,5 95 -
08:46 -1,1 -1,8   Kalm 1,6 1036,8 95 -
08:50 -1,0 -1,7   Kalm 1,6 1036,8 95 -
08:56 -0,9 -1,6   Kalm 1,6 1036,8 95 -
09:00 -0,9 -1,6   Kalm 1,6 1037,1 95 -
09:06 -0,9 -1,6   Kalm 3,2 1037,1 95 -
09:10 -0,9 -1,6   Kalm 1,6 1037,1 95 -
09:16 -0,9 -1,6   Kalm 1,6 1037,1 95 -
09:20 -0,8 -1,5 1,8 Noorden 3,2 1037,1 95 -
09:26 -0,8 -1,5   Kalm 3,2 1037,1 95 -
09:30 -0,8 -1,5   Kalm 3,2 1037,1 95 -
09:36 -0,8 -1,5   Kalm 1,6 1037,1 95 -
09:40 -0,8 -1,5   Kalm   1037,1 95 -
09:46 -0,8 -1,5   Kalm 1,6 1037,1 95 -
09:50 -0,8 -1,5   Kalm 1,6 1037,1 95 -
09:56 -0,8 -1,5   Kalm 1,6 1037,1 95 -
10:00 -0,7 -1,4   Kalm   1037,1 95 -
10:06 -0,7 -1,4   Kalm   1037,1 95 -
10:10 -0,7 -1,4   Kalm 1,6 1037,1 95 -
10:16 -0,7 -1,4   Kalm   1037,1 95 -
10:20 -0,6 -1,3   Kalm   1037,1 95 -
10:26 -0,6 -1,3   Kalm 1,6 1037,1 95 -
10:30 -0,6 -1,3   Kalm 1,6 1037,1 95 -
10:36 -0,4 -1,1 1,8 Noorden 1,6 1037,1 95 -
10:40 -0,4 -1,1   Kalm 3,2 1037,1 95 -
10:46 -0,3 -1,0   Kalm 3,2 1037,1 95 -
10:50 -0,3 -1,0   Kalm   1037,1 95 -
10:56 -0,1 -0,8   Kalm   1037,1 95 -
11:00 0,1 -0,6   Kalm 1,6 1037,1 95 -
11:06 0,1 -0,6   Kalm 3,2 1037,1 95 -
11:10 0,2 -0,5   Kalm 1,6 1036,8 95 -
11:16 0,3 -0,4   Kalm 1,6 1036,8 95 -
11:20 0,4 -0,3   Kalm 1,6 1036,8 95 -
11:26 0,6 -0,1   Kalm   1036,8 95 -
11:30 0,6 -0,1 1,8 Oosten 3,2 1036,8 95 -
11:36 0,7 0,0   Kalm 3,2 1037,1 95 -
11:40 0,7 0,0   Kalm 1,6 1037,1 95 -
11:46 0,7 0,0   Kalm 3,2 1037,1 95 -
11:50 0,7 0,0   Kalm 4,8 1037,1 95 -
11:56 0,6 -0,1   Kalm   1037,1 95 -
12:00 0,7 0,0   Kalm   1037,1 95 -
12:06 0,7 0,0   Kalm   1037,1 95 -
12:10 0,7 0,0   Kalm   1036,8 95 -
12:16 0,8 0,1   Kalm   1036,8 95 -
12:20 0,9 0,2   Kalm   1036,8 95 -
12:26 1,0 0,3   Kalm   1036,5 95 -
12:30 1,0 0,3   Kalm   1036,5 95 -
12:36 1,2 0,5   Kalm   1036,5 95 -
12:40 1,2 0,5   Kalm   1036,5 95 -
12:46 1,3 0,6   Kalm   1036,5 95 -
12:50 1,4 0,7   Kalm   1036,5 95 -
12:56 1,6 1,0   Kalm   1036,5 96 -
13:00 1,6 0,9   Kalm   1036,5 95 -
13:06 1,7 1,0   Kalm   1036,1 95 -
13:10 1,7 1,0   Kalm   1036,1 95 -
13:16 1,9 1,3   Kalm   1036,1 96 -
13:20 1,9 1,3   Kalm   1036,1 96 -
13:26 2,1 1,4   Kalm   1036,1 95 -
13:30 2,3 1,7   Kalm 3,2 1036,1 96 -
13:36 2,4 1,8 1,8 Oosten 3,2 1036,1 96 -
13:40 2,4 1,7 1,8 Oosten 3,2 1036,1 95 -
13:46 2,4 1,8 1,8 Oosten 3,2 1035,8 96 -
13:50 2,6 2,0   Kalm 1,6 1035,8 96 -
13:56 2,7 2,0   Kalm   1035,8 95 -
14:00 2,7 2,0   Kalm   1035,8 95 -
14:06 2,7 2,0   Kalm   1035,8 95 -
14:10 2,7 2,0   Kalm   1035,8 95 -
14:16 2,7 2,0   Kalm   1035,8 95 -
14:20 2,8 2,1   Kalm   1035,8 95 -
14:26 2,9 2,2   Kalm   1035,4 95 -
14:30 2,9 2,2   Kalm   1035,4 95 -
14:36 2,9 2,2   Kalm   1035,4 95 -
14:40 2,9 2,2   Kalm   1035,4 95 -
14:46 2,9 2,2   Kalm   1035,8 95 -
14:50 3,0 2,3   Kalm   1035,8 95 -
14:56 3,0 2,3   Kalm   1035,8 95 -
15:00 3,0 2,1   Kalm   1035,4 94 -
15:06 2,9 2,0   Kalm   1035,4 94 0,80
15:10 2,9 2,0   Kalm   1035,4 94 0,80
15:16 3,0 2,1   Kalm   1035,4 94 0,80
15:20 3,1 2,2   Kalm   1035,4 94 0,80
15:26 3,1 2,4   Kalm   1035,4 95 -
15:30 3,2 2,5   Kalm   1035,4 95 -
15:36 3,2 2,3   Kalm   1035,4 94 -
15:40 3,1 2,2   Kalm   1035,4 94 -
15:46 3,1 2,2   Kalm   1035,4 94 -
15:50 3,2 2,3   Kalm   1035,4 94 -
15:56 3,2 2,3   Kalm   1035,4 94 -
16:00 3,2 2,3   Kalm   1035,4 94 -
16:06 3,1 2,2   Kalm   1035,4 94 -
16:10 3,1 2,2   Kalm   1035,4 94 -
16:16 3,1 2,1   Kalm   1035,4 93 -
16:20 3,1 2,1   Kalm   1035,4 93 -
16:26 3,0 2,0   Kalm   1035,4 93 -
16:30 3,0 2,0   Kalm   1035,4 93 -
16:36 3,0 2,0   Kalm   1035,4 93 -
16:40 2,9 1,9   Kalm   1035,4 93 -
16:46 3,0 2,0   Kalm   1035,1 93 -
16:50 3,0 2,1   Kalm   1035,4 94 -
16:56 3,0 2,1   Kalm   1035,4 94 -
17:00 3,0 2,1   Kalm   1035,4 94 -
17:06 2,9 1,9   Kalm   1035,4 93 -
17:10 2,9 1,9   Kalm   1035,4 93 -
17:16 2,9 1,9   Kalm   1035,4 93 -
17:20 2,9 1,9   Kalm   1035,4 93 -
17:26 2,9 2,0   Kalm   1035,4 94 -
17:30 2,9 2,0   Kalm   1035,4 94 -
17:36 2,9 2,0   Kalm   1035,4 94 -
17:40 2,9 2,0   Kalm   1035,4 94 -
17:46 2,9 2,0   Kalm   1035,4 94 -
17:50 2,9 2,0   Kalm   1035,4 94 -
17:56 2,9 2,0   Kalm   1035,4 94 -
18:00 2,9 2,0   Kalm   1035,4 94 -
18:06 2,9 2,0 3,2 Oosten 4,8 1035,4 94 -
18:10 2,9 2,0   Kalm 1,6 1035,4 94 -
18:16 3,0 2,1   Kalm   1035,4 94 -
18:20 3,0 2,1   Kalm   1035,4 94 -
18:26 3,1 2,2   Kalm   1035,4 94 -
18:30 3,1 2,2 1,8 Oosten 4,8 1035,4 94 -
18:36 3,1 2,2 1,8 Oosten 1,6 1035,4 94 -
18:40 3,1 2,2 1,8 Oosten 4,8 1035,4 94 -
18:46 3,1 2,2   Kalm 3,2 1035,4 94 -
18:50 3,1 2,2 3,2 Oosten 3,2 1035,4 94 -
18:56 3,1 2,2 1,8 Oosten 6,4 1035,4 94 -
19:00 3,1 2,2 1,8 Oosten 1,6 1035,4 94 -
19:06 3,1 2,2 1,8 Oosten 1,6 1035,4 94 -
19:10 3,1 2,2 1,8 ONO 1,6 1035,4 94 -
19:16 3,1 2,2 1,8 ONO 1,6 1035,4 94 -
19:20 3,1 2,2 1,8 ONO 3,2 1035,4 94 -
19:26 3,1 2,2   Kalm 1,6 1035,8 94 -
19:30 3,1 2,2   Kalm 1,6 1035,8 94 -
19:36 3,1 2,2   Kalm   1035,8 94 -
19:40 3,2 2,3   Kalm   1035,8 94 -
19:46 3,2 2,3   Kalm   1035,8 94 -
19:50 3,2 2,3 1,8 ONO 1,6 1035,8 94 -
19:56 3,2 2,3 1,8 ONO 1,6 1035,8 94 -
20:00 3,2 2,3   Kalm   1035,8 94 -
20:06 3,2 2,3   Kalm   1036,1 94 -
20:10 3,2 2,3   Kalm   1035,8 94 -
20:16 3,2 2,3   Kalm   1035,8 94 -
20:20 3,2 2,3   Kalm   1035,8 94 -
20:26 3,2 2,3 1,8 ONO 1,6 1035,8 94 -
20:30 3,3 2,4   Kalm 1,6 1036,1 94 -
20:36 3,3 2,4   Kalm   1035,8 94 -
20:40 3,3 2,4   Kalm   1035,8 94 -
20:46 3,3 2,4   Kalm   1036,1 94 -
20:50 3,3 2,4   Kalm 1,6 1036,1 94 -
20:56 3,3 2,4   Kalm   1036,1 94 -
21:00 3,3 2,4   Kalm 1,6 1036,1 94 -
21:06 3,3 2,4   Kalm   1036,1 94 -
21:10 3,3 2,4   Kalm   1036,1 94 -
21:16 3,3 2,4   Kalm   1036,1 94 -
21:20 3,3 2,4   Kalm   1036,1 94 -
21:26 3,3 2,4   Kalm 1,6 1036,1 94 -
21:30 3,3 2,4   Kalm   1036,1 94 -
21:36 3,3 2,4   Kalm   1035,8 94 -
21:40 3,3 2,4   Kalm   1035,8 94 -
21:46 3,3 2,4   Kalm   1035,8 94 -
21:50 3,4 2,5   Kalm   1035,8 94 -
21:56 3,3 2,4   Kalm   1036,1 94 -
22:00 3,3 2,4   Kalm   1035,8 94 -
22:06 3,4 2,5   Kalm   1036,1 94 -
22:10 3,4 2,5   Kalm   1036,1 94 -
22:16 3,4 2,5   Kalm   1036,1 94 -
22:20 3,4 2,5   Kalm   1036,1 94 -
22:26 3,4 2,5   Kalm   1036,1 94 -

Download your copy of this data-set  here

Our weather-data as stored at Weather Underground. Script ontwikkeld door Jim McMurry. Aangepast voor de template door Leuven-Template.eu

U vindt ons ook hier:

Het Weer Aktueel

UK Metoffice

European Weather Network

WeatherCloud

Weather Underground

Benelux Weer Netwerk

AWEKAS

Citizen Weather Observer Program (CWOP)

Apparatuur in gebruik:

Weerstation
Davis VP2

Weerprogramma
Meteobridge

Weercomputer
TP-Link MR3020

Davis VP2

Meteobridge

TP-Link MR3020